Date,MW,Mvar
01/01/2018 00:15,0.39,0.02
01/01/2018 00:30,0.4,0.03
01/01/2018 00:45,0.42,0.04
01/01/2018 01:00,0.41,0.03
01/01/2018 01:15,0.41,0.05
01/01/2018 01:30,0.4,0.04
01/01/2018 01:45,0.4,0.03
01/01/2018 02:00,0.39,0.01
01/01/2018 02:15,0.39,0.03
01/01/2018 02:30,0.39,0.02
01/01/2018 02:45,0.39,0.02
01/01/2018 03:00,0.39,0.03
01/01/2018 03:15,0.42,0.04
01/01/2018 03:30,0.42,0.04
01/01/2018 03:45,0.44,0.03
01/01/2018 04:00,0.45,0.04
01/01/2018 04:15,0.41,0.04
01/01/2018 04:30,0.45,0.03
01/01/2018 04:45,0.41,0.03
01/01/2018 05:00,0.47,0.05
01/01/2018 05:15,0.41,0.02
01/01/2018 05:30,0.41,0.03
01/01/2018 05:45,0.42,0.04
01/01/2018 06:00,0.34,0.02
01/01/2018 06:15,0.29,0.02
01/01/2018 06:30,0.31,0.03
01/01/2018 06:45,0.29,0.03
01/01/2018 07:00,0.3,0.02
01/01/2018 07:15,0.28,0.04
01/01/2018 07:30,0.28,0.03
01/01/2018 07:45,0.3,0.05
01/01/2018 08:00,0.26,0.04
01/01/2018 08:15,0.3,0.07
01/01/2018 08:30,0.28,0.06
01/01/2018 08:45,0.26,0.08
01/01/2018 09:00,0.28,0.07
01/01/2018 09:15,0.25,0.09
01/01/2018 09:30,0.21,0.07
01/01/2018 09:45,0.24,0.09
01/01/2018 10:00,0.21,0.07
01/01/2018 10:15,0.24,0.08
01/01/2018 10:30,0.23,0.1
01/01/2018 10:45,0.24,0.1
01/01/2018 11:00,0.25,0.1
01/01/2018 11:15,0.23,0.1
01/01/2018 11:30,0.22,0.09
01/01/2018 11:45,0.21,0.08
01/01/2018 12:00,0.21,0.08
01/01/2018 12:15,0.22,0.07
01/01/2018 12:30,0.2,0.07
01/01/2018 12:45,0.19,0.06
01/01/2018 13:00,0.22,0.08
01/01/2018 13:15,0.2,0.07
01/01/2018 13:30,0.19,0.08
01/01/2018 13:45,0.24,0.12
01/01/2018 14:00,0.21,0.08
01/01/2018 14:15,0.24,0.09
01/01/2018 14:30,0.22,0.07
01/01/2018 14:45,0.21,0.06
01/01/2018 15:00,0.25,0.1
01/01/2018 15:15,0.22,0.07
01/01/2018 15:30,0.24,0.08
01/01/2018 15:45,0.23,0.08
01/01/2018 16:00,0.25,0.07
01/01/2018 16:15,0.24,0.07
01/01/2018 16:30,0.21,0.07
01/01/2018 16:45,0.22,0.05
01/01/2018 17:00,0.26,0.09
01/01/2018 17:15,0.25,0.08
01/01/2018 17:30,0.23,0.06
01/01/2018 17:45,0.25,0.06
01/01/2018 18:00,0.28,0.06
01/01/2018 18:15,0.26,0.07
01/01/2018 18:30,0.25,0.06
01/01/2018 18:45,0.27,0.06
01/01/2018 19:00,0.29,0.05
01/01/2018 19:15,0.29,0.04
01/01/2018 19:30,0.31,0.06
01/01/2018 19:45,0.34,0.05
01/01/2018 20:00,0.36,0.06
01/01/2018 20:15,0.32,0.04
01/01/2018 20:30,0.33,0.03
01/01/2018 20:45,0.34,0.03
01/01/2018 21:00,0.38,0.04
01/01/2018 21:15,0.4,0.03
01/01/2018 21:30,0.42,0.03
01/01/2018 21:45,0.42,0.04
01/01/2018 22:00,0.43,0.04
01/01/2018 22:15,0.42,0.03
01/01/2018 22:30,0.4,0.02
01/01/2018 22:45,0.42,0.04
01/01/2018 23:00,0.42,0.04
01/01/2018 23:15,0.43,0.03
01/01/2018 23:30,0.42,0.03
01/01/2018 23:45,0.42,0.04
02/01/2018 00:00,0.45,0.04
02/01/2018 00:15,0.43,0.03
02/01/2018 00:30,0.44,0.03
02/01/2018 00:45,0.44,0.04
02/01/2018 01:00,0.43,0.04
02/01/2018 01:15,0.45,0.05
02/01/2018 01:30,0.44,0.04
02/01/2018 01:45,0.44,0.05
02/01/2018 02:00,0.45,0.04
02/01/2018 02:15,0.42,0.03
02/01/2018 02:30,0.41,0.03
02/01/2018 02:45,0.42,0.03
02/01/2018 03:00,0.43,0.03
02/01/2018 03:15,0.43,0.03
02/01/2018 03:30,0.41,0.03
02/01/2018 03:45,0.42,0.04
02/01/2018 04:00,0.44,0.03
02/01/2018 04:15,0.47,0.04
02/01/2018 04:30,0.47,0.05
02/01/2018 04:45,0.54,0.05
02/01/2018 05:00,0.55,0.05
02/01/2018 05:15,0.57,0.06
02/01/2018 05:30,0.57,0.03
02/01/2018 05:45,0.55,0.02
02/01/2018 06:00,0.58,0.05
02/01/2018 06:15,0.55,0.06
02/01/2018 06:30,0.56,0.05
02/01/2018 06:45,0.58,0.05
02/01/2018 07:00,0.59,0.07
02/01/2018 07:15,0.62,0.07
02/01/2018 07:30,0.59,0.05
02/01/2018 07:45,0.76,0.16
02/01/2018 08:00,0.66,0.09
02/01/2018 08:15,0.71,0.12
02/01/2018 08:30,0.73,0.13
02/01/2018 08:45,0.68,0.13
02/01/2018 09:00,0.68,0.1
02/01/2018 09:15,0.67,0.14
02/01/2018 09:30,0.62,0.13
02/01/2018 09:45,0.66,0.15
02/01/2018 10:00,0.64,0.13
02/01/2018 10:15,0.62,0.13
02/01/2018 10:30,0.73,0.17
02/01/2018 10:45,0.63,0.15
02/01/2018 11:00,0.73,0.2
02/01/2018 11:15,0.59,0.14
02/01/2018 11:30,0.65,0.13
02/01/2018 11:45,0.67,0.16
02/01/2018 12:00,0.68,0.15
02/01/2018 12:15,0.64,0.18
02/01/2018 12:30,0.66,0.15
02/01/2018 12:45,0.6,0.18
02/01/2018 13:00,0.6,0.15
02/01/2018 13:15,0.63,0.17
02/01/2018 13:30,0.64,0.17
02/01/2018 13:45,0.63,0.17
02/01/2018 14:00,0.62,0.17
02/01/2018 14:15,0.71,0.18
02/01/2018 14:30,0.61,0.13
02/01/2018 14:45,0.54,0.14
02/01/2018 15:00,0.58,0.16
02/01/2018 15:15,0.63,0.15
02/01/2018 15:30,0.56,0.17
02/01/2018 15:45,0.58,0.13
02/01/2018 16:00,0.58,0.14
02/01/2018 16:15,0.5,0.12
02/01/2018 16:30,0.49,0.14
02/01/2018 16:45,0.58,0.13
02/01/2018 17:00,0.5,0.13
02/01/2018 17:15,0.52,0.14
02/01/2018 17:30,0.42,0.08
02/01/2018 17:45,0.37,0.06
02/01/2018 18:00,0.49,0.09
02/01/2018 18:15,0.47,0.06
02/01/2018 18:30,0.46,0.07
02/01/2018 18:45,0.44,0.07
02/01/2018 19:00,0.43,0.06
02/01/2018 19:15,0.43,0.06
02/01/2018 19:30,0.43,0.05
02/01/2018 19:45,0.47,0.05
02/01/2018 20:00,0.47,0.07
02/01/2018 20:15,0.49,0.07
02/01/2018 20:30,0.46,0.05
02/01/2018 20:45,0.51,0.08
02/01/2018 21:00,0.56,0.07
02/01/2018 21:15,0.58,0.08
02/01/2018 21:30,0.58,0.09
02/01/2018 21:45,0.59,0.09
02/01/2018 22:00,0.57,0.1
02/01/2018 22:15,0.61,0.07
02/01/2018 22:30,0.63,0.06
02/01/2018 22:45,0.68,0.08
02/01/2018 23:00,0.65,0.09
02/01/2018 23:15,0.63,0.07
02/01/2018 23:30,0.62,0.08
02/01/2018 23:45,0.58,0.04
03/01/2018 00:00,0.59,0.06
03/01/2018 00:15,0.58,0.05
03/01/2018 00:30,0.55,0.05
03/01/2018 00:45,0.59,0.06
03/01/2018 01:00,0.53,0.05
03/01/2018 01:15,0.55,0.07
03/01/2018 01:30,0.58,0.07
03/01/2018 01:45,0.54,0.07
03/01/2018 02:00,0.58,0.07
03/01/2018 02:15,0.52,0.05
03/01/2018 02:30,0.56,0.06
03/01/2018 02:45,0.54,0.06
03/01/2018 03:00,0.48,0.02
03/01/2018 03:15,0.47,0.04
03/01/2018 03:30,0.44,0.02
03/01/2018 03:45,0.45,0.03
03/01/2018 04:00,0.48,0.02
03/01/2018 04:15,0.48,0.03
03/01/2018 04:30,0.5,0.03
03/01/2018 04:45,0.54,0.01
03/01/2018 05:00,0.56,0.02
03/01/2018 05:15,0.57,0.02
03/01/2018 05:30,0.6,0.04
03/01/2018 05:45,0.63,0.04
03/01/2018 06:00,0.61,0.05
03/01/2018 06:15,0.55,0.07
03/01/2018 06:30,0.56,0.05
03/01/2018 06:45,0.58,0.06
03/01/2018 07:00,0.56,0.05
03/01/2018 07:15,0.68,0.1
03/01/2018 07:30,0.65,0.11
03/01/2018 07:45,0.7,0.12
03/01/2018 08:00,0.68,0.12
03/01/2018 08:15,0.69,0.13
03/01/2018 08:30,0.63,0.13
03/01/2018 08:45,0.69,0.15
03/01/2018 09:00,0.58,0.12
03/01/2018 09:15,0.72,0.16
03/01/2018 09:30,0.7,0.15
03/01/2018 09:45,0.69,0.15
03/01/2018 10:00,0.58,0.13
03/01/2018 10:15,0.61,0.12
03/01/2018 10:30,0.66,0.13
03/01/2018 10:45,0.68,0.16
03/01/2018 11:00,0.62,0.16
03/01/2018 11:15,0.66,0.19
03/01/2018 11:30,0.67,0.16
03/01/2018 11:45,0.63,0.16
03/01/2018 12:00,0.7,0.19
03/01/2018 12:15,0.67,0.16
03/01/2018 12:30,0.71,0.17
03/01/2018 12:45,0.61,0.14
03/01/2018 13:00,0.6,0.12
03/01/2018 13:15,0.66,0.19
03/01/2018 13:30,0.59,0.14
03/01/2018 13:45,0.62,0.15
03/01/2018 14:00,0.62,0.14
03/01/2018 14:15,0.65,0.15
03/01/2018 14:30,0.6,0.13
03/01/2018 14:45,0.58,0.13
03/01/2018 15:00,0.56,0.12
03/01/2018 15:15,0.53,0.11
03/01/2018 15:30,0.61,0.15
03/01/2018 15:45,0.54,0.11
03/01/2018 16:00,0.56,0.13
03/01/2018 16:15,0.63,0.15
03/01/2018 16:30,0.56,0.12
03/01/2018 16:45,0.56,0.14
03/01/2018 17:00,0.53,0.11
03/01/2018 17:15,0.5,0.11
03/01/2018 17:30,0.49,0.11
03/01/2018 17:45,0.47,0.11
03/01/2018 18:00,0.46,0.1
03/01/2018 18:15,0.49,0.12
03/01/2018 18:30,0.47,0.1
03/01/2018 18:45,0.43,0.09
03/01/2018 19:00,0.49,0.1
03/01/2018 19:15,0.42,0.06
03/01/2018 19:30,0.45,0.06
03/01/2018 19:45,0.48,0.08
03/01/2018 20:00,0.48,0.08
03/01/2018 20:15,0.47,0.08
03/01/2018 20:30,0.46,0.07
03/01/2018 20:45,0.45,0.07
03/01/2018 21:00,0.53,0.06
03/01/2018 21:15,0.51,0.06
03/01/2018 21:30,0.53,0.06
03/01/2018 21:45,0.55,0.08
03/01/2018 22:00,0.52,0.06
03/01/2018 22:15,0.64,0.07
03/01/2018 22:30,0.64,0.07
03/01/2018 22:45,0.6,0.07
03/01/2018 23:00,0.6,0.08
03/01/2018 23:15,0.59,0.07
03/01/2018 23:30,0.58,0.09
03/01/2018 23:45,0.59,0.08
04/01/2018 00:00,0.55,0.07
04/01/2018 00:15,0.54,0.05
04/01/2018 00:30,0.54,0.05
04/01/2018 00:45,0.51,0.06
04/01/2018 01:00,0.51,0.05
04/01/2018 01:15,0.52,0.06
04/01/2018 01:30,0.51,0.07
04/01/2018 01:45,0.53,0.07
04/01/2018 02:00,0.5,0.07
04/01/2018 02:15,0.42,0.02
04/01/2018 02:30,0.48,0.01
04/01/2018 02:45,0.44,0.02
04/01/2018 03:00,0.44,0.02
04/01/2018 03:15,0.46,0.03
04/01/2018 03:30,0.44,0.03
04/01/2018 03:45,0.47,0.03
04/01/2018 04:00,0.46,0.03
04/01/2018 04:15,0.45,0.02
04/01/2018 04:30,0.48,0.02
04/01/2018 04:45,0.49,0.01
04/01/2018 05:00,0.55,0.02
04/01/2018 05:15,0.54,0.01
04/01/2018 05:30,0.56,0.02
04/01/2018 05:45,0.67,0.08
04/01/2018 06:00,0.6,0.08
04/01/2018 06:15,0.6,0.07
04/01/2018 06:30,0.59,0.09
04/01/2018 06:45,0.63,0.09
04/01/2018 07:00,0.64,0.09
04/01/2018 07:15,0.61,0.1
04/01/2018 07:30,0.62,0.1
04/01/2018 07:45,0.63,0.1
04/01/2018 08:00,0.69,0.11
04/01/2018 08:15,0.71,0.15
04/01/2018 08:30,0.65,0.13
04/01/2018 08:45,0.67,0.15
04/01/2018 09:00,0.66,0.16
04/01/2018 09:15,0.69,0.16
04/01/2018 09:30,0.67,0.16
04/01/2018 09:45,0.67,0.18
04/01/2018 10:00,0.65,0.16
04/01/2018 10:15,0.7,0.2
04/01/2018 10:30,0.7,0.22
04/01/2018 10:45,0.66,0.19
04/01/2018 11:00,0.73,0.24
04/01/2018 11:15,0.63,0.17
04/01/2018 11:30,0.71,0.2
04/01/2018 11:45,0.65,0.18
04/01/2018 12:00,0.67,0.2
04/01/2018 12:15,0.68,0.2
04/01/2018 12:30,0.63,0.18
04/01/2018 12:45,0.63,0.15
04/01/2018 13:00,0.62,0.16
04/01/2018 13:15,0.66,0.19
04/01/2018 13:30,0.63,0.18
04/01/2018 13:45,0.61,0.18
04/01/2018 14:00,0.61,0.14
04/01/2018 14:15,0.61,0.15
04/01/2018 14:30,0.58,0.11
04/01/2018 14:45,0.61,0.15
04/01/2018 15:00,0.58,0.13
04/01/2018 15:15,0.59,0.13
04/01/2018 15:30,0.59,0.13
04/01/2018 15:45,0.61,0.15
04/01/2018 16:00,0.51,0.1
04/01/2018 16:15,0.5,0.1
04/01/2018 16:30,0.51,0.13
04/01/2018 16:45,0.47,0.13
04/01/2018 17:00,0.5,0.14
04/01/2018 17:15,0.45,0.09
04/01/2018 17:30,0.44,0.08
04/01/2018 17:45,0.45,0.1
04/01/2018 18:00,0.39,0.06
04/01/2018 18:15,0.43,0.07
04/01/2018 18:30,0.4,0.02
04/01/2018 18:45,0.41,0.02
04/01/2018 19:00,0.37,0.01
04/01/2018 19:15,0.47,0.05
04/01/2018 19:30,0.44,0.06
04/01/2018 19:45,0.48,0.08
04/01/2018 20:00,0.46,0.08
04/01/2018 20:15,0.48,0.08
04/01/2018 20:30,0.46,0.06
04/01/2018 20:45,0.48,0.07
04/01/2018 21:00,0.54,0.07
04/01/2018 21:15,0.57,0.07
04/01/2018 21:30,0.56,0.07
04/01/2018 21:45,0.52,0.07
04/01/2018 22:00,0.54,0.08
04/01/2018 22:15,0.59,0.08
04/01/2018 22:30,0.6,0.07
04/01/2018 22:45,0.61,0.07
04/01/2018 23:00,0.61,0.08
04/01/2018 23:15,0.59,0.07
04/01/2018 23:30,0.61,0.07
04/01/2018 23:45,0.6,0.07
05/01/2018 00:00,0.56,0.06
05/01/2018 00:15,0.55,0.04
05/01/2018 00:30,0.55,0.05
05/01/2018 00:45,0.55,0.05
05/01/2018 01:00,0.58,0.05
05/01/2018 01:15,0.54,0.06
05/01/2018 01:30,0.52,0.06
05/01/2018 01:45,0.55,0.07
05/01/2018 02:00,0.52,0.07
05/01/2018 02:15,0.46,0.03
05/01/2018 02:30,0.47,0.03
05/01/2018 02:45,0.46,0.02
05/01/2018 03:00,0.49,0.02
05/01/2018 03:15,0.47,0.03
05/01/2018 03:30,0.46,0.03
05/01/2018 03:45,0.45,0.03
05/01/2018 04:00,0.44,0.02
05/01/2018 04:15,0.49,0.02
05/01/2018 04:30,0.47,0.03
05/01/2018 04:45,0.5,0.02
05/01/2018 05:00,0.54,0.01
05/01/2018 05:15,0.53,0.02
05/01/2018 05:30,0.54,0.02
05/01/2018 05:45,0.61,0.05
05/01/2018 06:00,0.62,0.06
05/01/2018 06:15,0.61,0.11
05/01/2018 06:30,0.63,0.11
05/01/2018 06:45,0.66,0.13
05/01/2018 07:00,0.61,0.11
05/01/2018 07:15,0.71,0.12
05/01/2018 07:30,0.62,0.1
05/01/2018 07:45,0.66,0.13
05/01/2018 08:00,0.72,0.14
05/01/2018 08:15,0.74,0.14
05/01/2018 08:30,0.68,0.14
05/01/2018 08:45,0.67,0.14
05/01/2018 09:00,0.67,0.16
05/01/2018 09:15,0.64,0.12
05/01/2018 09:30,0.67,0.17
05/01/2018 09:45,0.7,0.18
05/01/2018 10:00,0.7,0.2
05/01/2018 10:15,0.64,0.18
05/01/2018 10:30,0.66,0.19
05/01/2018 10:45,0.7,0.19
05/01/2018 11:00,0.68,0.18
05/01/2018 11:15,0.67,0.18
05/01/2018 11:30,0.69,0.2
05/01/2018 11:45,0.7,0.21
05/01/2018 12:00,0.64,0.18
05/01/2018 12:15,0.71,0.23
05/01/2018 12:30,0.7,0.21
05/01/2018 12:45,0.67,0.2
05/01/2018 13:00,0.69,0.2
05/01/2018 13:15,0.73,0.22
05/01/2018 13:30,0.71,0.2
05/01/2018 13:45,0.72,0.22
05/01/2018 14:00,0.73,0.23
05/01/2018 14:15,0.66,0.2
05/01/2018 14:30,0.59,0.14
05/01/2018 14:45,0.57,0.17
05/01/2018 15:00,0.57,0.12
05/01/2018 15:15,0.57,0.13
05/01/2018 15:30,0.56,0.13
05/01/2018 15:45,0.55,0.14
05/01/2018 16:00,0.57,0.17
05/01/2018 16:15,0.55,0.14
05/01/2018 16:30,0.5,0.12
05/01/2018 16:45,0.55,0.14
05/01/2018 17:00,0.5,0.1
05/01/2018 17:15,0.49,0.12
05/01/2018 17:30,0.48,0.12
05/01/2018 17:45,0.39,0.06
05/01/2018 18:00,0.41,0.06
05/01/2018 18:15,0.43,0.06
05/01/2018 18:30,0.42,0.07
05/01/2018 18:45,0.4,0.05
05/01/2018 19:00,0.46,0.06
05/01/2018 19:15,0.44,0.06
05/01/2018 19:30,0.48,0.08
05/01/2018 19:45,0.49,0.08
05/01/2018 20:00,0.52,0.07
05/01/2018 20:15,0.49,0.09
05/01/2018 20:30,0.49,0.08
05/01/2018 20:45,0.49,0.11
05/01/2018 21:00,0.53,0.1
05/01/2018 21:15,0.59,0.12
05/01/2018 21:30,0.58,0.11
05/01/2018 21:45,0.56,0.11
05/01/2018 22:00,0.57,0.11
05/01/2018 22:15,0.62,0.09
05/01/2018 22:30,0.62,0.1
05/01/2018 22:45,0.59,0.07
05/01/2018 23:00,0.61,0.1
05/01/2018 23:15,0.6,0.08
05/01/2018 23:30,0.58,0.08
05/01/2018 23:45,0.59,0.08
06/01/2018 00:00,0.57,0.07
06/01/2018 00:15,0.54,0.05
06/01/2018 00:30,0.53,0.07
06/01/2018 00:45,0.54,0.07
06/01/2018 01:00,0.56,0.09
06/01/2018 01:15,0.5,0.05
06/01/2018 01:30,0.47,0.04
06/01/2018 01:45,0.44,0.03
06/01/2018 02:00,0.45,0.04
06/01/2018 02:15,0.43,0.03
06/01/2018 02:30,0.44,0.06
06/01/2018 02:45,0.44,0.04
06/01/2018 03:00,0.44,0.04
06/01/2018 03:15,0.43,0.02
06/01/2018 03:30,0.44,0.03
06/01/2018 03:45,0.43,0.03
06/01/2018 04:00,0.48,0.03
06/01/2018 04:15,0.45,0.03
06/01/2018 04:30,0.45,0.04
06/01/2018 04:45,0.49,0.05
06/01/2018 05:00,0.47,0.04
06/01/2018 05:15,0.52,0.03
06/01/2018 05:30,0.46,0.03
06/01/2018 05:45,0.46,0.03
06/01/2018 06:00,0.49,0.09
06/01/2018 06:15,0.44,0.08
06/01/2018 06:30,0.47,0.12
06/01/2018 06:45,0.45,0.1
06/01/2018 07:00,0.5,0.1
06/01/2018 07:15,0.49,0.12
06/01/2018 07:30,0.49,0.11
06/01/2018 07:45,0.49,0.11
06/01/2018 08:00,0.44,0.11
06/01/2018 08:15,0.49,0.15
06/01/2018 08:30,0.48,0.11
06/01/2018 08:45,0.44,0.12
06/01/2018 09:00,0.45,0.13
06/01/2018 09:15,0.45,0.15
06/01/2018 09:30,0.5,0.18
06/01/2018 09:45,0.5,0.17
06/01/2018 10:00,0.49,0.17
06/01/2018 10:15,0.47,0.18
06/01/2018 10:30,0.48,0.18
06/01/2018 10:45,0.5,0.17
06/01/2018 11:00,0.51,0.19
06/01/2018 11:15,0.51,0.2
06/01/2018 11:30,0.48,0.18
06/01/2018 11:45,0.47,0.17
06/01/2018 12:00,0.52,0.2
06/01/2018 12:15,0.52,0.18
06/01/2018 12:30,0.51,0.19
06/01/2018 12:45,0.52,0.18
06/01/2018 13:00,0.52,0.18
06/01/2018 13:15,0.54,0.2
06/01/2018 13:30,0.54,0.21
06/01/2018 13:45,0.54,0.2
06/01/2018 14:00,0.51,0.19
06/01/2018 14:15,0.53,0.21
06/01/2018 14:30,0.51,0.21
06/01/2018 14:45,0.51,0.2
06/01/2018 15:00,0.5,0.2
06/01/2018 15:15,0.52,0.21
06/01/2018 15:30,0.53,0.21
06/01/2018 15:45,0.54,0.21
06/01/2018 16:00,0.53,0.19
06/01/2018 16:15,0.52,0.21
06/01/2018 16:30,0.54,0.21
06/01/2018 16:45,0.58,0.22
06/01/2018 17:00,0.54,0.21
06/01/2018 17:15,0.53,0.21
06/01/2018 17:30,0.58,0.22
06/01/2018 17:45,0.53,0.18
06/01/2018 18:00,0.5,0.13
06/01/2018 18:15,0.45,0.14
06/01/2018 18:30,0.45,0.13
06/01/2018 18:45,0.4,0.08
06/01/2018 19:00,0.4,0.1
06/01/2018 19:15,0.4,0.11
06/01/2018 19:30,0.4,0.11
06/01/2018 19:45,0.44,0.11
06/01/2018 20:00,0.42,0.09
06/01/2018 20:15,0.43,0.09
06/01/2018 20:30,0.43,0.09
06/01/2018 20:45,0.41,0.08
06/01/2018 21:00,0.46,0.06
06/01/2018 21:15,0.49,0.06
06/01/2018 21:30,0.5,0.07
06/01/2018 21:45,0.5,0.07
06/01/2018 22:00,0.47,0.06
06/01/2018 22:15,0.51,0.06
06/01/2018 22:30,0.48,0.07
06/01/2018 22:45,0.48,0.05
06/01/2018 23:00,0.5,0.07
06/01/2018 23:15,0.51,0.07
06/01/2018 23:30,0.48,0.05
06/01/2018 23:45,0.47,0.05
07/01/2018 00:00,0.48,0.07
07/01/2018 00:15,0.46,0.05
07/01/2018 00:30,0.45,0.05
07/01/2018 00:45,0.45,0.06
07/01/2018 01:00,0.46,0.05
07/01/2018 01:15,0.44,0.05
07/01/2018 01:30,0.42,0.03
07/01/2018 01:45,0.47,0.05
07/01/2018 02:00,0.44,0.03
07/01/2018 02:15,0.41,0.03
07/01/2018 02:30,0.44,0.02
07/01/2018 02:45,0.43,0.04
07/01/2018 03:00,0.44,0.04
07/01/2018 03:15,0.45,0.03
07/01/2018 03:30,0.42,0.04
07/01/2018 03:45,0.43,0.04
07/01/2018 04:00,0.45,0.05
07/01/2018 04:15,0.41,0.02
07/01/2018 04:30,0.49,0.04
07/01/2018 04:45,0.44,0.03
07/01/2018 05:00,0.46,0.03
07/01/2018 05:15,0.46,0.03
07/01/2018 05:30,0.44,0.04
07/01/2018 05:45,0.45,0.03
07/01/2018 06:00,0.45,0.04
07/01/2018 06:15,0.38,0.04
07/01/2018 06:30,0.36,0.05
07/01/2018 06:45,0.36,0.04
07/01/2018 07:00,0.37,0.07
07/01/2018 07:15,0.39,0.07
07/01/2018 07:30,0.38,0.08
07/01/2018 07:45,0.39,0.07
07/01/2018 08:00,0.37,0.09
07/01/2018 08:15,0.39,0.08
07/01/2018 08:30,0.4,0.1
07/01/2018 08:45,0.37,0.12
07/01/2018 09:00,0.39,0.12
07/01/2018 09:15,0.35,0.09
07/01/2018 09:30,0.31,0.1
07/01/2018 09:45,0.34,0.08
07/01/2018 10:00,0.3,0.04
07/01/2018 10:15,0.29,0.05
07/01/2018 10:30,0.3,0.06
07/01/2018 10:45,0.32,0.06
07/01/2018 11:00,0.3,0.04
07/01/2018 11:15,0.3,0.06
07/01/2018 11:30,0.27,0.04
07/01/2018 11:45,0.29,0.05
07/01/2018 12:00,0.31,0.05
07/01/2018 12:15,0.24,0.06
07/01/2018 12:30,0.22,0.05
07/01/2018 12:45,0.19,0.05
07/01/2018 13:00,0.24,0.05
07/01/2018 13:15,0.23,0.06
07/01/2018 13:30,0.23,0.06
07/01/2018 13:45,0.24,0.05
07/01/2018 14:00,0.23,0.05
07/01/2018 14:15,0.2,0.04
07/01/2018 14:30,0.28,0.05
07/01/2018 14:45,0.27,0.02
07/01/2018 15:00,0.23,0.04
07/01/2018 15:15,0.25,0.05
07/01/2018 15:30,0.26,0.04
07/01/2018 15:45,0.27,0.03
07/01/2018 16:00,0.21,0.04
07/01/2018 16:15,0.21,0.05
07/01/2018 16:30,0.23,0.04
07/01/2018 16:45,0.22,0.05
07/01/2018 17:00,0.24,0.05
07/01/2018 17:15,0.31,0.07
07/01/2018 17:30,0.28,0.04
07/01/2018 17:45,0.28,0.04
07/01/2018 18:00,0.29,0.04
07/01/2018 18:15,0.28,0.05
07/01/2018 18:30,0.3,0.06
07/01/2018 18:45,0.29,0.05
07/01/2018 19:00,0.28,0.04
07/01/2018 19:15,0.28,0.02
07/01/2018 19:30,0.29,0.04
07/01/2018 19:45,0.33,0.04
07/01/2018 20:00,0.37,0.06
07/01/2018 20:15,0.33,0.04
07/01/2018 20:30,0.37,0.04
07/01/2018 20:45,0.32,0.02
07/01/2018 21:00,0.37,0.04
07/01/2018 21:15,0.42,0.02
07/01/2018 21:30,0.43,0.04
07/01/2018 21:45,0.47,0.05
07/01/2018 22:00,0.44,0.03
07/01/2018 22:15,0.43,0.02
07/01/2018 22:30,0.41,0.03
07/01/2018 22:45,0.41,0.02
07/01/2018 23:00,0.41,0.03
07/01/2018 23:15,0.41,0.02
07/01/2018 23:30,0.44,0.02
07/01/2018 23:45,0.43,0.02
08/01/2018 00:00,0.43,0.03
08/01/2018 00:15,0.44,0.03
08/01/2018 00:30,0.43,0.02
08/01/2018 00:45,0.44,0.02
08/01/2018 01:00,0.46,0.01
08/01/2018 01:15,0.44,0.02
08/01/2018 01:30,0.45,0.02
08/01/2018 01:45,0.46,0.01
08/01/2018 02:00,0.42,0.03
08/01/2018 02:15,0.45,0.02
08/01/2018 02:30,0.43,0.03
08/01/2018 02:45,0.47,0.04
08/01/2018 03:00,0.43,0.03
08/01/2018 03:15,0.43,0.03
08/01/2018 03:30,0.47,0.04
08/01/2018 03:45,0.42,0.03
08/01/2018 04:00,0.43,0.03
08/01/2018 04:15,0.48,0.02
08/01/2018 04:30,0.48,0.03
08/01/2018 04:45,0.52,0.03
08/01/2018 05:00,0.58,0.03
08/01/2018 05:15,0.67,0.11
08/01/2018 05:30,0.63,0.06
08/01/2018 05:45,0.72,0.09
08/01/2018 06:00,0.68,0.09
08/01/2018 06:15,0.71,0.14
08/01/2018 06:30,0.68,0.13
08/01/2018 06:45,0.71,0.16
08/01/2018 07:00,0.72,0.15
08/01/2018 07:15,1.29,0.18
08/01/2018 07:30,1.27,0.22
08/01/2018 07:45,1.26,0.21
08/01/2018 08:00,1.21,0.33
08/01/2018 08:15,1.26,0.35
08/01/2018 08:30,1.25,0.4
08/01/2018 08:45,1.18,0.31
08/01/2018 09:00,1.17,0.32
08/01/2018 09:15,1.12,0.31
08/01/2018 09:30,1.15,0.39
08/01/2018 09:45,1.21,0.36
08/01/2018 10:00,1.31,0.37
08/01/2018 10:15,1.17,0.32
08/01/2018 10:30,1.11,0.33
08/01/2018 10:45,1.19,0.42
08/01/2018 11:00,1.09,0.34
08/01/2018 11:15,1.21,0.36
08/01/2018 11:30,1.11,0.34
08/01/2018 11:45,1.17,0.36
08/01/2018 12:00,1.08,0.28
08/01/2018 12:15,1.15,0.39
08/01/2018 12:30,1.24,0.39
08/01/2018 12:45,1.16,0.36
08/01/2018 13:00,1.23,0.4
08/01/2018 13:15,1.24,0.39
08/01/2018 13:30,1.17,0.41
08/01/2018 13:45,1.32,0.44
08/01/2018 14:00,1.33,0.38
08/01/2018 14:15,1.22,0.34
08/01/2018 14:30,1.26,0.35
08/01/2018 14:45,1.25,0.34
08/01/2018 15:00,1.13,0.32
08/01/2018 15:15,1.2,0.34
08/01/2018 15:30,1.3,0.37
08/01/2018 15:45,1.24,0.38
08/01/2018 16:00,1.11,0.3
08/01/2018 16:15,1.13,0.32
08/01/2018 16:30,1.12,0.29
08/01/2018 16:45,1.19,0.35
08/01/2018 17:00,1.08,0.3
08/01/2018 17:15,1.2,0.34
08/01/2018 17:30,1.09,0.35
08/01/2018 17:45,1.08,0.32
08/01/2018 18:00,1.08,0.28
08/01/2018 18:15,1.07,0.27
08/01/2018 18:30,1.09,0.33
08/01/2018 18:45,1.15,0.32
08/01/2018 19:00,1.06,0.29
08/01/2018 19:15,1.1,0.29
08/01/2018 19:30,1.02,0.25
08/01/2018 19:45,1.06,0.25
08/01/2018 20:00,1.05,0.27
08/01/2018 20:15,1.13,0.28
08/01/2018 20:30,1.08,0.22
08/01/2018 20:45,1.1,0.28
08/01/2018 21:00,1.11,0.25
08/01/2018 21:15,1.17,0.26
08/01/2018 21:30,1.11,0.22
08/01/2018 21:45,1.15,0.26
08/01/2018 22:00,1.21,0.29
08/01/2018 22:15,1.19,0.27
08/01/2018 22:30,1.21,0.27
08/01/2018 22:45,1.27,0.28
08/01/2018 23:00,1.24,0.27
08/01/2018 23:15,1.18,0.24
08/01/2018 23:30,1.24,0.26
08/01/2018 23:45,1.2,0.27
09/01/2018 00:00,1.22,0.25
09/01/2018 00:15,1.22,0.31
09/01/2018 00:30,1.18,0.25
09/01/2018 00:45,1.22,0.26
09/01/2018 01:00,1.06,0.26
09/01/2018 01:15,1.11,0.23
09/01/2018 01:30,1.07,0.23
09/01/2018 01:45,1.02,0.27
09/01/2018 02:00,1.02,0.23
09/01/2018 02:15,1.01,0.21
09/01/2018 02:30,1.15,0.27
09/01/2018 02:45,1.11,0.24
09/01/2018 03:00,1.09,0.24
09/01/2018 03:15,1.1,0.24
09/01/2018 03:30,1.1,0.23
09/01/2018 03:45,1.12,0.25
09/01/2018 04:00,1.11,0.24
09/01/2018 04:15,1.09,0.2
09/01/2018 04:30,1.1,0.2
09/01/2018 04:45,1.21,0.23
09/01/2018 05:00,1.21,0.24
09/01/2018 05:15,1.12,0.24
09/01/2018 05:30,1.16,0.23
09/01/2018 05:45,1.24,0.24
09/01/2018 06:00,1.26,0.26
09/01/2018 06:15,1.14,0.28
09/01/2018 06:30,1.19,0.3
09/01/2018 06:45,1.25,0.3
09/01/2018 07:00,1.16,0.29
09/01/2018 07:15,1.25,0.31
09/01/2018 07:30,1.23,0.3
09/01/2018 07:45,1.25,0.29
09/01/2018 08:00,1.31,0.33
09/01/2018 08:15,1.35,0.35
09/01/2018 08:30,1.32,0.34
09/01/2018 08:45,1.48,0.37
09/01/2018 09:00,1.39,0.4
09/01/2018 09:15,1.38,0.33
09/01/2018 09:30,1.51,0.37
09/01/2018 09:45,1.52,0.38
09/01/2018 10:00,1.47,0.38
09/01/2018 10:15,1.55,0.42
09/01/2018 10:30,1.42,0.4
09/01/2018 10:45,1.45,0.43
09/01/2018 11:00,1.5,0.44
09/01/2018 11:15,1.41,0.4
09/01/2018 11:30,1.58,0.47
09/01/2018 11:45,1.5,0.44
09/01/2018 12:00,1.62,0.44
09/01/2018 12:15,1.38,0.39
09/01/2018 12:30,1.32,0.38
09/01/2018 12:45,1.4,0.44
09/01/2018 13:00,1.34,0.41
09/01/2018 13:15,1.37,0.44
09/01/2018 13:30,1.38,0.42
09/01/2018 13:45,1.53,0.45
09/01/2018 14:00,1.47,0.41
09/01/2018 14:15,1.33,0.38
09/01/2018 14:30,1.12,0.33
09/01/2018 14:45,1.16,0.32
09/01/2018 15:00,1.18,0.35
09/01/2018 15:15,1.15,0.34
09/01/2018 15:30,1.18,0.37
09/01/2018 15:45,1.18,0.35
09/01/2018 16:00,1.17,0.38
09/01/2018 16:15,1.18,0.34
09/01/2018 16:30,1.06,0.33
09/01/2018 16:45,1.14,0.35
09/01/2018 17:00,1.13,0.33
09/01/2018 17:15,1.13,0.33
09/01/2018 17:30,1.04,0.33
09/01/2018 17:45,1.08,0.3
09/01/2018 18:00,1.11,0.29
09/01/2018 18:15,1.11,0.33
09/01/2018 18:30,1.03,0.29
09/01/2018 18:45,0.99,0.28
09/01/2018 19:00,1.08,0.31
09/01/2018 19:15,1.08,0.28
09/01/2018 19:30,1,0.25
09/01/2018 19:45,1.1,0.27
09/01/2018 20:00,1.09,0.27
09/01/2018 20:15,1.01,0.27
09/01/2018 20:30,1.04,0.25
09/01/2018 20:45,1.12,0.27
09/01/2018 21:00,1.11,0.25
09/01/2018 21:15,1.15,0.27
09/01/2018 21:30,1.12,0.24
09/01/2018 21:45,1.17,0.28
09/01/2018 22:00,1.1,0.25
09/01/2018 22:15,1.21,0.27
09/01/2018 22:30,1.23,0.26
09/01/2018 22:45,1.13,0.25
09/01/2018 23:00,1.09,0.25
09/01/2018 23:15,1.12,0.27